GW5522 Weather Reports


time (UTC)temp
C
wind
direction
speed
KPH
gust
KPH
rain 1hr
cm
rain 24hr
cm
rain mn
cm
humidity
%
barometer
mb
20260503211915 16 300 3.2 6.4 0.00 0.00 0.00 36 1013.0
20260503211415 16 223 4.8 11.3 0.00 0.00 0.00 37 1013.0
20260503210914 16 185 4.8 6.4 0.00 0.00 0.00 37 1013.0
20260503210414 16 200 6.4 16.1 0.00 0.00 0.00 38 1013.0
20260503205914 16 280 4.8 9.7 0.00 0.00 0.00 36 1013.0
20260503205414 16 203 4.8 12.9 0.00 0.00 0.00 36 1013.0
20260503204914 16 326 3.2 9.7 0.00 0.00 0.00 37 1013.0
20260503204414 15 258 4.8 9.7 0.00 0.00 0.00 38 1013.0
20260503203916 15 213 3.2 8.0 0.00 0.00 0.00 39 1013.0
20260503203415 15 214 6.4 11.3 0.00 0.00 0.00 37 1013.0
20260503202914 15 210 3.2 9.7 0.00 0.00 0.00 38 1013.0
20260503202415 15 139 1.6 3.2 0.00 0.00 0.00 38 1013.0
20260503201915 15 217 4.8 9.7 0.00 0.00 0.00 38 1013.0
20260503201414 15 191 0.0 3.2 0.00 0.00 0.00 38 1014.0
20260503200914 16 205 4.8 9.7 0.00 0.00 0.00 37 1014.0
20260503200414 16 306 3.2 9.7 0.00 0.00 0.00 38 1014.0
20260503195914 16 245 4.8 8.0 0.00 0.00 0.00 38 1014.0
20260503195415 16 279 3.2 9.7 0.00 0.00 0.00 37 1014.0
20260503194914 16 282 4.8 12.9 0.00 0.00 0.00 36 1014.0
20260503194415 15 215 6.4 9.7 0.00 0.00 0.00 38 1014.0
20260503193914 16 326 6.4 14.5 0.00 0.00 0.00 37 1014.0
20260503193415 16 209 1.6 6.4 0.00 0.00 0.00 39 1014.0
20260503192915 16 330 3.2 8.0 0.00 0.00 0.00 38 1014.0
20260503192414 15 330 1.6 6.4 0.00 0.00 0.00 40 1014.0
20260503191914 16 303 3.2 6.4 0.00 0.00 0.00 40 1014.0
20260503191415 16 204 6.4 12.9 0.00 0.00 0.00 40 1014.0
20260503190915 16 214 3.2 9.7 0.00 0.00 0.00 38 1015.0
20260503190415 16 297 0.0 3.2 0.00 0.00 0.00 38 1015.0
20260503185914 16 322 4.8 11.3 0.00 0.00 0.00 37 1015.0
20260503185414 16 306 4.8 12.9 0.00 0.00 0.00 38 1015.0
20260503184914 16 266 3.2 9.7 0.00 0.00 0.00 37 1015.0
20260503184415 16 320 4.8 12.9 0.00 0.00 0.00 40 1015.0
20260503183914 16 213 1.6 6.4 0.00 0.00 0.00 42 1015.0
20260503183415 16 318 4.8 9.7 0.00 0.00 0.00 39 1015.0
20260503182915 15 209 6.4 9.7 0.00 0.00 0.00 40 1015.0
20260503182415 15 213 6.4 14.5 0.00 0.00 0.00 40 1015.0
20260503181915 16 345 3.2 9.7 0.00 0.00 0.00 39 1015.0
20260503181414 16 4 3.2 6.4 0.00 0.00 0.00 40 1015.0
20260503180914 16 168 3.2 9.7 0.00 0.00 0.00 40 1015.0
20260503180414 16 344 3.2 6.4 0.00 0.00 0.00 39 1015.0
20260503175914 15 312 3.2 6.4 0.00 0.00 0.00 41 1015.0
20260503175417 15 222 9.7 12.9 0.00 0.00 0.00 39 1015.0
20260503174914 15 336 3.2 6.4 0.00 0.00 0.00 40 1015.0
20260503174414 15 1 1.6 6.4 0.00 0.00 0.00 43 1016.0
20260503173915 15 228 6.4 12.9 0.00 0.00 0.00 38 1015.0
20260503173414 15 243 3.2 8.0 0.00 0.00 0.00 40 1016.0
20260503172914 15 287 3.2 8.0 0.00 0.00 0.00 41 1016.0
20260503172414 15 247 6.4 11.3 0.00 0.00 0.00 41 1016.0
20260503171915 15 308 3.2 6.4 0.00 0.00 0.00 40 1015.0
20260503171414 15 320 3.2 8.0 0.00 0.00 0.00 40 1016.0
20260503170915 14 306 6.4 12.9 0.00 0.00 0.00 38 1016.0
20260503170417 13 306 3.2 6.4 0.00 0.00 0.00 42 1016.0
20260503150914 12 277 1.6 8.0 0.00 0.00 0.00 41 1017.0
20260503150415 12 274 3.2 6.4 0.00 0.00 0.00 40 1017.0
20260503131415 5 261 1.6 4.8 0.00 0.00 0.00 88 1018.0
20260503130914 5 224 3.2 6.4 0.00 0.00 0.00 96 1018.0
20260503130414 4 163 0.0 3.2 0.00 0.00 0.00 97 1018.0
20260503110414 -1 0 0.0 0.0 0.00 0.00 0.00 100 1017.0
20260503090414 0 0 0.0 0.0 0.00 0.00 0.00 98 1016.0
20260503081415 0 0 0.0 0.0 0.00 0.00 0.00 98 1016.0
20260503080914 0 0 0.0 0.0 0.00 0.00 0.00 98 1016.0
20260503080414 0 0 0.0 0.0 0.00 0.00 0.00 98 1016.0
20260503072914 0 0 0.0 0.0 0.00 0.00 0.00 97 1016.0
20260503072414 0 0 0.0 0.0 0.00 0.00 0.00 98 1016.0
20260503071915 0 0 0.0 0.0 0.00 0.00 0.00 97 1016.0
20260503071415 0 0 0.0 0.0 0.00 0.00 0.00 97 1016.0
20260503070914 0 0 0.0 0.0 0.00 0.00 0.00 97 1016.0
20260503070415 1 0 0.0 0.0 0.00 0.00 0.00 97 1016.0
20260503054914 1 0 0.0 0.0 0.00 0.00 0.00 96 1016.0
20260503054415 1 0 0.0 0.0 0.00 0.00 0.00 96 1016.0
20260503053915 1 0 0.0 0.0 0.00 0.00 0.00 96 1016.0
20260503053415 1 0 0.0 0.0 0.00 0.00 0.00 96 1016.0
20260503052914 1 0 0.0 0.0 0.00 0.00 0.00 96 1016.0
20260503052414 1 0 0.0 0.0 0.00 0.00 0.00 96 1016.0
20260503051915 1 0 0.0 0.0 0.00 0.00 0.00 96 1016.0
20260503051414 1 0 0.0 0.0 0.00 0.00 0.00 96 1016.0
20260503050914 1 0 0.0 0.0 0.00 0.00 0.00 96 1016.0
20260503050414 2 0 0.0 0.0 0.00 0.00 0.00 95 1016.0
20260503045914 2 0 0.0 0.0 0.00 0.00 0.00 95 1016.0
20260503045414 2 0 0.0 0.0 0.00 0.00 0.00 95 1016.0
20260503044914 2 0 0.0 0.0 0.00 0.00 0.00 95 1016.0
20260503044414 2 0 0.0 0.0 0.00 0.00 0.00 95 1016.0
20260503043915 2 0 0.0 0.0 0.00 0.00 0.00 95 1016.0
20260503043415 2 0 0.0 0.0 0.00 0.00 0.00 95 1016.0
20260503042914 2 0 0.0 0.0 0.00 0.00 0.00 94 1016.0
20260503042414 2 0 0.0 0.0 0.00 0.00 0.00 94 1016.0
20260503041914 2 0 0.0 0.0 0.00 0.00 0.00 94 1016.0
20260503041415 2 0 0.0 0.0 0.00 0.00 0.00 94 1016.0
20260503040915 2 0 0.0 0.0 0.00 0.00 0.00 94 1016.0
20260503040414 2 0 0.0 0.0 0.00 0.00 0.00 94 1016.0
20260503035914 2 0 0.0 0.0 0.00 0.00 0.08 93 1016.0
20260503035414 2 0 0.0 0.0 0.00 0.00 0.08 93 1016.0
20260503034915 2 0 0.0 0.0 0.00 0.00 0.08 93 1016.0
20260503034414 2 0 0.0 0.0 0.00 0.00 0.08 93 1016.0
20260503033914 2 0 0.0 0.0 0.00 0.00 0.08 92 1016.0
20260503033414 2 0 0.0 0.0 0.00 0.00 0.08 92 1016.0
20260503032915 2 0 0.0 0.0 0.00 0.00 0.08 91 1016.0
20260503032415 2 0 0.0 0.0 0.00 0.00 0.08 91 1016.0
20260503031914 2 0 0.0 0.0 0.00 0.00 0.08 91 1016.0
20260503031414 2 0 0.0 0.0 0.00 0.00 0.08 90 1016.0
20260503030914 2 0 0.0 0.0 0.00 0.00 0.08 89 1016.0
20260503030414 2 0 0.0 0.0 0.00 0.00 0.08 88 1016.0
20260503025915 2 0 0.0 0.0 0.00 0.00 0.08 87 1016.0
20260503025414 2 0 0.0 0.0 0.00 0.00 0.08 87 1016.0
20260503024915 2 0 0.0 0.0 0.00 0.00 0.08 86 1016.0
20260503024414 3 0 0.0 0.0 0.00 0.00 0.08 85 1016.0
20260503023914 3 0 0.0 0.0 0.00 0.00 0.08 84 1016.0
20260503023414 3 0 0.0 0.0 0.00 0.00 0.08 81 1016.0
20260503022914 3 0 0.0 0.0 0.00 0.00 0.08 79 1016.0
20260503022414 3 0 0.0 0.0 0.00 0.00 0.08 78 1016.0
20260503021915 4 0 0.0 0.0 0.00 0.00 0.08 78 1016.0
20260503021414 4 0 0.0 0.0 0.00 0.00 0.08 77 1016.0
20260503020914 4 0 0.0 0.0 0.00 0.00 0.08 76 1016.0
20260503020414 4 0 0.0 0.0 0.00 0.00 0.08 76 1017.0
20260503015914 4 0 0.0 0.0 0.00 0.00 0.08 74 1017.0
20260503015414 4 356 0.0 3.2 0.00 0.00 0.08 73 1017.0
20260503014914 4 329 0.0 1.6 0.00 0.00 0.08 74 1017.0
20260503014415 4 0 0.0 0.0 0.00 0.00 0.08 74 1017.0
20260503013914 4 323 0.0 1.6 0.00 0.00 0.08 74 1017.0
20260503013415 4 0 0.0 0.0 0.00 0.00 0.08 75 1017.0
20260503012914 4 0 0.0 0.0 0.00 0.00 0.08 76 1017.0
20260503012414 4 324 0.0 1.6 0.00 0.00 0.08 76 1017.0
20260503011914 4 0 0.0 0.0 0.00 0.00 0.08 76 1017.0
20260503011414 4 0 0.0 0.0 0.00 0.00 0.08 75 1017.0
20260503010914 4 0 0.0 0.0 0.00 0.00 0.08 75 1016.0
20260503010414 5 0 0.0 0.0 0.00 0.00 0.08 74 1016.0
20260503005914 5 0 0.0 0.0 0.00 0.00 0.08 73 1016.0
20260503005418 5 0 0.0 0.0 0.00 0.00 0.08 72 1016.0
20260503004915 5 0 0.0 0.0 0.00 0.00 0.08 70 1016.0
20260503004414 5 0 0.0 0.0 0.00 0.00 0.08 69 1016.0
20260503003914 5 0 0.0 0.0 0.00 0.00 0.08 69 1016.0
20260503003414 5 0 0.0 0.0 0.00 0.00 0.08 68 1016.0
20260503002914 5 302 0.0 1.6 0.00 0.00 0.08 68 1016.0
20260503002414 5 13 0.0 1.6 0.00 0.00 0.08 69 1016.0
20260503001914 5 343 1.6 6.4 0.00 0.00 0.08 69 1016.0
20260503001414 5 353 1.6 4.8 0.00 0.00 0.08 70 1016.0
20260503000915 5 46 0.0 3.2 0.00 0.00 0.08 68 1016.0
20260503000415 5 51 3.2 3.2 0.00 0.00 0.08 68 1016.0
20260502235914 5 0 0.0 0.0 0.00 0.00 0.08 69 1016.0
20260502235414 6 0 1.6 4.8 0.00 0.00 0.08 67 1016.0
20260502234915 6 311 0.0 3.2 0.00 0.00 0.08 66 1016.0
20260502234414 6 0 0.0 0.0 0.00 0.00 0.08 66 1016.0
20260502233914 6 0 0.0 0.0 0.00 0.00 0.08 65 1016.0
20260502233414 6 311 1.6 3.2 0.00 0.00 0.08 65 1016.0
20260502232914 6 345 0.0 1.6 0.00 0.00 0.08 65 1016.0
20260502232414 6 17 1.6 8.0 0.00 0.00 0.08 64 1016.0
20260502231914 6 19 3.2 6.4 0.00 0.00 0.08 63 1016.0
20260502231414 6 17 4.8 9.7 0.00 0.00 0.08 63 1016.0
20260502230914 6 0 0.0 0.0 0.00 0.00 0.08 63 1016.0
20260502230415 6 9 0.0 3.2 0.00 0.00 0.08 64 1016.0
20260502225915 6 13 1.6 6.4 0.00 0.00 0.08 63 1016.0
20260502225414 6 22 3.2 6.4 0.00 0.00 0.08 63 1016.0
20260502224914 6 357 1.6 6.4 0.00 0.00 0.08 64 1016.0
20260502224415 6 13 0.0 1.6 0.00 0.00 0.08 64 1016.0
20260502223914 6 26 4.8 8.0 0.00 0.00 0.08 65 1016.0
20260502223415 6 327 3.2 3.2 0.00 0.00 0.08 64 1016.0
20260502222914 6 300 0.0 3.2 0.00 0.00 0.08 65 1016.0
20260502222415 6 1 0.0 3.2 0.00 0.00 0.08 64 1016.0
20260502221915 6 22 1.6 4.8 0.00 0.00 0.08 63 1016.0
20260502221414 7 265 0.0 1.6 0.00 0.00 0.08 65 1016.0
20260502220914 7 346 1.6 3.2 0.00 0.00 0.08 64 1016.0
20260502220415 6 1 1.6 4.8 0.00 0.00 0.08 65 1016.0
20260502215914 7 12 3.2 8.0 0.00 0.00 0.08 64 1016.0
20260502215414 7 314 0.0 3.2 0.00 0.00 0.08 64 1016.0
20260502214914 6 304 1.6 4.8 0.00 0.00 0.08 65 1016.0
20260502214417 6 337 0.0 3.2 0.00 0.00 0.08 66 1016.0
20260502213914 6 305 3.2 6.4 0.00 0.00 0.08 67 1016.0
20260502213415 6 16 4.8 8.0 0.00 0.00 0.08 68 1016.0
20260502212914 6 17 3.2 6.4 0.00 0.00 0.08 69 1016.0
20260502212414 6 0 0.0 0.0 0.00 0.00 0.08 70 1016.0